Content
SEND FEEDBACK

Daily
Averages
Monthly
Summary
United States of America

CASTLE HAYNE, NORTH CAROLINA


Home > North America > United States > North Carolina
Elevation: 35 feet     Latitude: 34 19N     Longitude: 077 55W

WEATHER
 
SELECT A DAY
Number of Records: 214,180;   Date Range: 1/1/95 - 12/21/14
 
SHARE

PRINT THIS DATA

[ ← Previous Day ]
WEATHER ALMANAC - JULY 28, 2013
[ Next Day → ]
[ °C ]   °F
Weather ElementAverageHighLow
Temperature79.8 °F86 °F (12:53 pm)73 °F (1:53 am)
Dewpoint72.9 °F75.2 °F (7:29 pm)66 °F (3:53 pm)
Humidity80 %97 % (6:53 am)60 % (3:53 pm)
Barometer29.98 in30.04 in (11:53 pm)29.91 in (3:53 am)
Wind Speed6.8 mph11.5 mph (2:53 pm)
Weather ElementAverage
Visibility10 mi
Wind DirectionSSW (199.6 °)

Weather ElementTotal
Precipitation0.02 in
Cooling Degree Days14.5 (Base 65)
Growing Degree Days29.5 (Base 50)
Averaged from 25 records on July 28, 2013
WEATHER CONDITIONS BREAKOUT
WIND DIRECTION BREAKOUT
WEATHER BY HOUR - JULY 28, 2013
[ °C ]   °F
Local TimeTemperatureDewpointHumidityBarometerVisibilityWind DirectionWind SpeedGust SpeedPrecipitationEventsConditions
1:53 AM73.0 °F71.1 °F93 %29.94 in10.0 miNorth (360°)3.5 mphClear
2:53 AM73.9 °F72.0 °F93 %29.93 in10.0 miCalmClear
3:53 AM73.9 °F72.0 °F93 %29.91 in10.0 miSW (220°)3.5 mphClear
4:53 AM73.9 °F72.0 °F93 %29.91 in10.0 miCalm0.01 inClear
5:53 AM75.0 °F73.0 °F94 %29.93 in10.0 miWNW (290°)4.6 mphClear
6:53 AM73.9 °F73.0 °F97 %29.94 in10.0 miCalmClear
7:53 AM77.0 °F75.0 °F94 %29.97 in10.0 miWSW (250°)3.5 mphClear
8:53 AM81.0 °F75.0 °F82 %29.97 in10.0 miWSW (240°)8.1 mphClear
9:46 AM80.6 °F73.4 °F79 %29.98 in10.0 miWSW (240°)10.4 mphMostly Cloudy
9:53 AM81.0 °F73.0 °F77 %29.98 in10.0 miWest (260°)10.4 mphScattered Clouds
10:53 AM82.0 °F71.1 °F69 %29.99 in10.0 miWest (260°)6.9 mphClear
11:53 AM84.0 °F70.0 °F63 %30.00 in10.0 miWSW (240°)4.6 mphClear
12:53 PM86.0 °F72.0 °F63 %29.99 in10.0 miWest (260°)8.1 mphPartly Cloudy
1:53 PM86.0 °F72.0 °F63 %29.98 in10.0 miSSW (200°)6.9 mphMostly Cloudy
2:53 PM84.9 °F73.9 °F69 %29.97 in10.0 miSouth (190°)11.5 mphMostly Cloudy
3:53 PM81.0 °F66.0 °F60 %29.98 in10.0 miWNW (300°)8.1 mph0.00 inOvercast
4:53 PM84.9 °F73.0 °F67 %29.98 in10.0 miSouth (190°)6.9 mph0.00 inScattered Clouds
5:53 PM82.9 °F73.9 °F74 %29.98 in10.0 miSouth (180°)11.5 mph0.00 inMostly Cloudy
6:53 PM82.0 °F75.0 °F79 %30.00 in10.0 miSouth (170°)10.4 mphPartly Cloudy
7:29 PM80.6 °F75.2 °F84 %30.00 in10.0 miSSE (160°)10.4 mphMostly Cloudy
7:53 PM81.0 °F75.0 °F82 %30.01 in10.0 miSouth (180°)5.8 mphMostly Cloudy
8:53 PM80.1 °F73.9 °F81 %30.01 in10.0 miSSW (200°)9.2 mph0.01 inPartly Cloudy
9:53 PM80.1 °F73.9 °F81 %30.02 in10.0 miSouth (190°)10.4 mphClear
10:53 PM79.0 °F73.9 °F84 %30.02 in10.0 miSSW (200°)9.2 mphClear
11:53 PM78.1 °F73.9 °F87 %30.04 in10.0 miSSW (210°)6.9 mphClear
Hourly data recorded from KILM, located miles away from Castle Hayne, North Carolina







STORIES FROM OUR PARTNERS